[[{"header":{"parameterUnit":"m.s-1","parameterCategory":1,"la1":30.2991,"la2":30.254,"lo1":-89.0895,"lo2":-89.0444,"dy":0.0017,"dx":0.0017,"nx":28,"ny":28,"refTime":"2025-05-26T09:00:00:Z","depth":0,"parameterNumber":2,"parameterNumberName":"U-component_of_WINDS"},"data":[0,0,0,0,0,0,0,0,0,0,0,0,0,0,0,0,0,0,0,0,0,0,0,0,0,0,0,0,0,0,0,0,0,0,0,0,0,0,0,0,0,0,0,0,0,0,0,0,0,0,0,0,0,0,0,0,0,0,-0.8086,-0.8085,0,-0.8019,-0.8018,-0.8017,-0.7974,-0.7974,-0.7973,-0.7973,-0.7903,-0.7901,-0.79,0,0,0,0,0,0,0,0,0,0,0,0,0,-0.8177,-0.8175,-0.8086,-0.8085,-0.8084,-0.8019,-0.8018,-0.8017,-0.7974,-0.7974,-0.7973,-0.7973,-0.7903,-0.7901,-0.7899,0,0,0,0,0,0,0,0,0,0,0,0,0,-0.8126,-0.8175,-0.8086,-0.8055,-0.8052,-0.8019,-0.8018,-0.8017,-0.7974,-0.7974,-0.7973,-0.7973,-0.7904,-0.7902,-0.7899,-0.7892,0,0,-0.7892,-0.7891,0,0,0,0,0,0,0,0,-0.8129,-0.8123,-0.806,-0.8057,-0.8053,-0.8004,-0.8024,-0.7975,-0.7974,-0.8003,-0.7973,-0.7973,-0.7937,-0.7932,-0.792,-0.7889,-0.7886,-0.7891,-0.789,-0.7889,-0.7888,0,0,0,0,0,0,0,-0.8133,-0.8125,-0.8059,-0.806,-0.8055,-0.8044,-0.8037,-0.8015,-0.7973,-0.8001,-0.7997,-0.799,-0.7935,-0.7922,-0.7918,-0.7885,-0.7892,-0.7889,-0.7888,-0.7887,-0.7845,-0.7845,0,0,0,0,0,0,-0.8141,-0.8129,-0.8062,-0.8057,-0.8091,-0.8043,-0.8034,-0.802,-0.7973,-0.7966,-0.7991,-0.7988,-0.7927,-0.7921,-0.7915,-0.7904,-0.7889,-0.7887,-0.7885,-0.7845,-0.7845,-0.7846,0,0,0,0,0,0,-0.8143,-0.8136,-0.8064,-0.8092,-0.8082,-0.8042,-0.8026,-0.8019,-0.8007,-0.7966,-0.7958,-0.7986,-0.7926,-0.7919,-0.7898,-0.7901,-0.7886,-0.7883,-0.7844,-0.7845,-0.7845,-0.7881,0,0,0,0,0,0,-0.8146,-0.8137,-0.8134,-0.8092,-0.8081,-0.8049,-0.8027,-0.8018,-0.8003,-0.7999,-0.7959,-0.7952,-0.7925,-0.7902,-0.7896,-0.7897,-0.7881,-0.7844,-0.7845,-0.7845,-0.788,-0.7883,-0.7886,0,0,0,0,0,-0.8149,-0.8146,-0.8134,-0.8126,-0.8076,-0.8049,-0.8042,-0.8013,-0.8003,-0.8,-0.7974,-0.7953,-0.7902,-0.7901,-0.7893,-0.7894,-0.7844,-0.7844,-0.7845,-0.7878,-0.7882,-0.7886,0,0,0,0,0,0,-0.8188,-0.814,-0.8126,-0.8109,-0.8084,-0.8042,-0.8036,-0.8018,-0.7994,-0.7992,-0.7955,-0.7946,-0.793,-0.791,-0.7909,-0.7885,-0.787,-0.787,-0.7898,-0.7902,-0.7905,-0.791,-0.7879,0,0,0,0,0,-0.8195,-0.8177,-0.8136,-0.8125,-0.8113,-0.8077,-0.8064,-0.8043,-0.8015,-0.8004,-0.7976,-0.795,-0.7927,-0.7914,-0.7891,-0.7877,-0.7868,-0.7874,-0.7877,-0.788,-0.7879,-0.7871,-0.7873,-0.7848,-0.7848,-0.7848,0,0,-0.8208,-0.8179,-0.817,-0.8132,-0.811,-0.8092,-0.8068,-0.805,-0.8036,-0.8001,-0.798,-0.7959,-0.7927,-0.791,-0.7901,-0.7893,-0.7884,-0.7881,-0.7883,-0.7881,-0.7872,-0.7874,-0.7876,-0.7849,-0.7849,-0.7848,0,0,-0.8223,-0.82,-0.8188,-0.8167,-0.8134,-0.811,-0.8108,-0.8069,-0.8054,-0.8032,-0.8006,-0.7989,-0.7952,-0.793,-0.7914,-0.7922,-0.7902,-0.7916,-0.7931,-0.7924,-0.7925,-0.7927,-0.793,-0.7931,-0.7916,-0.7916,-0.7916,0,-0.8243,-0.8215,-0.8184,-0.8168,-0.8152,-0.812,-0.8108,-0.8089,-0.805,-0.804,-0.8031,-0.7985,-0.7961,-0.7938,-0.794,-0.7929,-0.7924,-0.792,-0.7928,-0.7929,-0.793,-0.7932,-0.7933,-0.7918,-0.7917,-0.7917,-0.7917,0,-0.8242,-0.8223,-0.8218,-0.8182,-0.8165,-0.8152,-0.8119,-0.8106,-0.8087,-0.8064,-0.8043,-0.8014,-0.7985,-0.7978,-0.7959,-0.7953,-0.7949,-0.7935,-0.7919,-0.7935,-0.7936,-0.7937,-0.792,-0.792,-0.7919,-0.7919,0,0,-0.8278,-0.8226,-0.8225,-0.8208,-0.817,-0.8155,-0.814,-0.8112,-0.8101,-0.8076,-0.8062,-0.8032,-0.8019,-0.8001,-0.798,-0.7973,-0.7981,-0.7959,-0.7958,-0.7964,-0.7973,-0.7983,-0.7985,-0.7968,-0.7968,-0.7968,-0.7975,0,-0.8287,-0.8258,-0.8231,-0.8212,-0.8194,-0.8164,-0.8151,-0.8126,-0.8105,-0.8087,-0.8063,-0.8042,-0.8027,-0.8016,-0.8008,-0.7982,-0.7982,-0.7981,-0.7955,-0.7954,-0.7963,-0.7985,-0.7996,-0.8004,-0.7976,-0.7976,-0.7976,0,-0.8293,-0.827,-0.825,-0.8214,-0.8205,-0.8194,-0.8166,-0.815,-0.8121,-0.8106,-0.8087,-0.8064,-0.8047,-0.8035,-0.801,-0.801,-0.7997,-0.7983,-0.7983,-0.7979,-0.7965,-0.7981,-0.8006,-0.8007,-0.7976,-0.7976,-0.7976,0,-0.8322,-0.8285,-0.8268,-0.8255,-0.8213,-0.8205,-0.8187,-0.8158,-0.8144,-0.812,-0.811,-0.8085,-0.807,-0.8051,-0.8022,-0.8016,-0.8001,-0.7986,-0.7987,-0.7988,-0.7985,-0.7985,-0.8007,-0.7978,-0.7978,-0.7978,-0.7978,0,-0.8334,-0.8323,-0.828,-0.827,-0.8256,-0.8225,-0.8212,-0.8191,-0.8166,-0.8151,-0.8124,-0.811,-0.8074,-0.8056,-0.8033,-0.8016,-0.801,-0.7997,-0.7991,-0.7999,-0.8001,-0.799,-0.7989,-0.7978,-0.7978,-0.7978,-0.7978,0,-0.8363,-0.8334,-0.8314,-0.8276,-0.8266,-0.8258,-0.8225,-0.8214,-0.8191,-0.8173,-0.8167,-0.8131,-0.8109,-0.8079,-0.8047,-0.8032,-0.8017,-0.8008,-0.8027,-0.8023,-0.8027,-0.8027,-0.8042,-0.8042,-0.8014,-0.8014,-0.8014,0,-0.8372,-0.8363,-0.8324,-0.8313,-0.8296,-0.8277,-0.8262,-0.8231,-0.8216,-0.8184,-0.8176,-0.8152,-0.8131,-0.8096,-0.8068,-0.8043,-0.8033,-0.804,-0.8029,-0.8038,-0.8033,-0.8033,-0.8032,-0.8043,-0.8043,-0.8044,-0.8044,0,-0.8393,-0.8379,-0.8359,-0.8334,-0.8317,-0.8296,-0.8273,-0.8265,-0.8229,-0.8214,-0.8191,-0.8175,-0.8143,-0.8119,-0.8091,-0.8072,-0.8052,-0.8048,-0.8047,-0.8055,-0.8066,-0.806,-0.8034,-0.8047,-0.8047,-0.8047,-0.8047,-0.8046,-0.8412,-0.8402,-0.8374,-0.8352,-0.8332,-0.8312,-0.8299,-0.8276,-0.8256,-0.8228,-0.8211,-0.8189,-0.8161,-0.8121,-0.8103,-0.8085,-0.8077,-0.8076,-0.8075,-0.8075,-0.8078,-0.807,-0.808,-0.808,-0.808,-0.808,-0.808,0,-0.843,-0.8411,-0.8391,-0.8361,-0.8344,-0.8328,-0.8302,-0.8289,-0.827,-0.8246,-0.8225,-0.8199,-0.8176,-0.8146,-0.8121,-0.8112,-0.8103,-0.8107,-0.8107,-0.8103,-0.8087,-0.809,-0.8115,-0.8115,-0.8115,-0.8115,-0.8115,-0.8115,-0.8438,-0.8421,-0.8404,-0.8377,-0.8357,-0.8336,-0.8322,-0.8303,-0.8284,-0.8256,-0.8237,-0.8218,-0.8191,-0.8164,-0.8142,-0.8134,-0.8126,-0.8133,-0.8122,-0.8107,-0.8104,-0.8101,-0.8104,-0.8131,-0.8131,-0.8139,-0.8139,-0.8139]},{"header":{"parameterUnit":"m.s-1","parameterCategory":1,"la1":30.2991,"la2":30.254,"lo1":-89.0895,"lo2":-89.0444,"dy":0.0017,"dx":0.0017,"nx":28,"ny":28,"refTime":"2025-05-26T09:00:00:Z","depth":0,"parameterNumber":3,"parameterNumberName":"V-component_of_WINDS"},"data":[0,0,0,0,0,0,0,0,0,0,0,0,0,0,0,0,0,0,0,0,0,0,0,0,0,0,0,0,0,0,0,0,0,0,0,0,0,0,0,0,0,0,0,0,0,0,0,0,0,0,0,0,0,0,0,0,0,0,5.8679,5.8679,0,5.8667,5.8667,5.8667,5.8642,5.8642,5.8641,5.8641,5.8624,5.8624,5.8624,0,0,0,0,0,0,0,0,0,0,0,0,0,5.8679,5.8679,5.8679,5.8679,5.8679,5.8667,5.8667,5.8667,5.8642,5.8642,5.8641,5.864,5.8624,5.8624,5.8624,0,0,0,0,0,0,0,0,0,0,0,0,0,5.8674,5.8679,5.8679,5.8665,5.8664,5.8667,5.8667,5.8667,5.8642,5.8642,5.8641,5.864,5.8624,5.8624,5.8624,5.8638,0,0,5.8624,5.8624,0,0,0,0,0,0,0,0,5.8674,5.8674,5.8667,5.8666,5.8665,5.8655,5.8661,5.8657,5.8642,5.865,5.8641,5.864,5.8635,5.8634,5.8633,5.8638,5.8637,5.8624,5.8624,5.8624,5.8624,0,0,0,0,0,0,0,5.8675,5.8674,5.8674,5.8667,5.8666,5.8659,5.8657,5.866,5.8646,5.865,5.8648,5.8647,5.8634,5.8633,5.8632,5.8637,5.8624,5.8624,5.8624,5.8624,5.8656,5.8656,0,0,0,0,0,0,5.8678,5.8675,5.8675,5.8674,5.8668,5.866,5.8658,5.8659,5.8646,5.8644,5.8648,5.8646,5.8633,5.8632,5.8632,5.865,5.8624,5.8624,5.8624,5.8655,5.8656,5.8657,0,0,0,0,0,0,5.8678,5.8678,5.8675,5.8674,5.8673,5.866,5.8662,5.8659,5.8658,5.8645,5.8642,5.8649,5.8633,5.8632,5.8638,5.8649,5.8624,5.8624,5.8654,5.8655,5.8656,5.8685,0,0,0,0,0,0,5.8678,5.8678,5.8683,5.8674,5.8673,5.8682,5.8662,5.8659,5.8659,5.8657,5.8646,5.8643,5.8632,5.8638,5.8638,5.8648,5.8624,5.8653,5.8654,5.8656,5.8683,5.8687,5.8691,0,0,0,0,0,5.8678,5.869,5.8684,5.8684,5.868,5.8683,5.8682,5.867,5.866,5.8665,5.8657,5.8644,5.8648,5.8639,5.8638,5.8649,5.8652,5.8654,5.8656,5.8681,5.8686,5.869,0,0,0,0,0,0,5.8698,5.8689,5.8681,5.8691,5.8689,5.8679,5.8685,5.8675,5.8673,5.8671,5.8655,5.8653,5.8662,5.8656,5.8646,5.8664,5.8648,5.865,5.8667,5.8672,5.8676,5.8677,5.8624,0,0,0,0,0,5.8705,5.8709,5.8699,5.8709,5.8708,5.8697,5.8698,5.8689,5.8685,5.8683,5.8675,5.867,5.8671,5.8671,5.867,5.8682,5.868,5.8689,5.8693,5.8696,5.8698,5.8707,5.8711,5.8663,5.8663,5.8663,0,0,5.8717,5.8712,5.8715,5.8713,5.871,5.8714,5.8696,5.87,5.8703,5.8683,5.8689,5.8684,5.8677,5.8687,5.8691,5.8683,5.8712,5.8699,5.8702,5.8702,5.8709,5.8714,5.8718,5.8664,5.8664,5.8664,0,0,5.8741,5.8737,5.8747,5.8745,5.8741,5.8734,5.8736,5.8728,5.8725,5.8731,5.8717,5.872,5.872,5.8717,5.8716,5.8743,5.8731,5.8743,5.8763,5.8771,5.8775,5.8779,5.879,5.8794,5.8745,5.8745,5.8745,0,5.8756,5.8763,5.8752,5.8759,5.8759,5.8743,5.8753,5.8751,5.8746,5.8747,5.8738,5.8741,5.8735,5.8745,5.8753,5.8751,5.8754,5.8744,5.8776,5.8779,5.8782,5.8793,5.8797,5.8747,5.8747,5.8746,5.8746,0,5.8782,5.8787,5.8795,5.8794,5.8796,5.8803,5.8794,5.8796,5.8789,5.8783,5.8791,5.8784,5.8784,5.8785,5.8776,5.8795,5.879,5.8779,5.8762,5.8788,5.8798,5.8802,5.8749,5.8749,5.8748,5.8748,0,0,5.8817,5.8813,5.8816,5.8817,5.8813,5.8817,5.8825,5.8826,5.8829,5.8827,5.8834,5.8837,5.8827,5.8826,5.8816,5.8824,5.8849,5.8812,5.8811,5.882,5.8872,5.8881,5.8886,5.8841,5.8842,5.8842,5.8873,0,5.8841,5.8856,5.8848,5.8864,5.8869,5.8856,5.8863,5.8862,5.8857,5.8861,5.8855,5.8858,5.8844,5.8844,5.8851,5.8844,5.8859,5.8842,5.8847,5.8848,5.885,5.8891,5.89,5.8929,5.8876,5.8877,5.8877,0,5.887,5.8873,5.889,5.8889,5.8891,5.8897,5.89,5.8903,5.8902,5.8898,5.8899,5.8889,5.8897,5.8881,5.8892,5.8881,5.8883,5.8881,5.8882,5.8882,5.8865,5.8893,5.8938,5.8943,5.8883,5.8883,5.8882,0,5.8896,5.8904,5.8916,5.8917,5.8914,5.892,5.8919,5.8917,5.892,5.8921,5.8923,5.8925,5.8926,5.8928,5.8919,5.8908,5.8932,5.8915,5.893,5.893,5.8935,5.8935,5.8982,5.8935,5.8935,5.8935,5.8935,0,5.8924,5.8935,5.8928,5.8935,5.8948,5.894,5.8952,5.895,5.8949,5.8956,5.8944,5.895,5.8938,5.8943,5.8936,5.8948,5.8947,5.8945,5.8943,5.8947,5.8947,5.8948,5.8946,5.8936,5.8936,5.8936,5.8935,0,5.8955,5.895,5.8963,5.8961,5.8961,5.8971,5.8969,5.8976,5.8972,5.8981,5.8983,5.8976,5.8982,5.8974,5.8977,5.8973,5.899,5.8984,5.8991,5.899,5.9006,5.9005,5.9055,5.9062,5.901,5.901,5.9011,0,5.8973,5.8982,5.8983,5.8988,5.8989,5.8996,5.8999,5.8992,5.8996,5.8997,5.9004,5.901,5.9014,5.9024,5.9019,5.9023,5.9018,5.9035,5.9018,5.9023,5.902,5.902,5.9022,5.9039,5.9039,5.904,5.904,0,5.9007,5.9005,5.9012,5.9018,5.9024,5.9028,5.9031,5.9035,5.9028,5.9033,5.904,5.9044,5.905,5.9056,5.906,5.9058,5.9048,5.9046,5.905,5.9054,5.9058,5.9058,5.9002,5.9045,5.9044,5.9044,5.9044,5.9043,5.9033,5.9041,5.9045,5.9053,5.9055,5.906,5.9067,5.9066,5.9072,5.9078,5.9073,5.9083,5.9084,5.9087,5.9087,5.9095,5.9087,5.9092,5.9094,5.9095,5.9099,5.9057,5.9095,5.9095,5.9095,5.9095,5.9094,0,5.9067,5.907,5.9078,5.9084,5.9092,5.9084,5.9088,5.9094,5.9104,5.9106,5.9112,5.9122,5.9128,5.9125,5.9131,5.9138,5.9134,5.914,5.9139,5.914,5.9104,5.9101,5.9143,5.9143,5.9143,5.9143,5.9143,5.9143,5.9086,5.9101,5.9101,5.9118,5.9119,5.9131,5.9134,5.9138,5.9141,5.9153,5.916,5.9158,5.9159,5.9166,5.9172,5.9171,5.9174,5.9182,5.918,5.9147,5.9142,5.9137,5.9134,5.9183,5.9183,5.9215,5.9215,5.9215]}]]